AJI9604 KLRD-KAHN

Flight info

Callsign AJI9604
Flight time N/A
Altitude 41000
Route PSX VUH SBI LCH J22 MCB MGM
Aircraft MD11/H-SDE1E2E3FGHIJ2J3J4J5M1RWXY/LB1D1

Departure

Time 2026-05-08 01:25
Airport Laredo International Airport (KLRD)

Arrival

Time N/A
Airport Athens Ben Epps Airport (KAHN)
Time Latitude Longitude Altitude Speed Heading
2026-05-08 00:36 27.54446 -99.45635 496 ft 0 kts 182°
2026-05-08 01:18 27.54445 -99.45635 496 ft 0 kts 182°
2026-05-08 01:18 27.54444 -99.45635 496 ft 1 kts 185°
2026-05-08 01:18 27.54442 -99.45636 496 ft 0 kts 192°
2026-05-08 01:19 27.54440 -99.45639 496 ft 1 kts 210°
2026-05-08 01:19 27.54423 -99.45657 488 ft 7 kts 220°
2026-05-08 01:19 27.54399 -99.45712 488 ft 9 kts 253°
2026-05-08 01:19 27.54387 -99.45787 495 ft 10 kts 264°
2026-05-08 01:20 27.54378 -99.45853 495 ft 5 kts 244°
2026-05-08 01:20 27.54358 -99.45870 487 ft 3 kts 208°
2026-05-08 01:20 27.54346 -99.45873 496 ft 1 kts 193°
2026-05-08 01:20 27.54335 -99.45875 485 ft 2 kts 189°
2026-05-08 01:21 27.54316 -99.45877 496 ft 4 kts 184°
2026-05-08 01:21 27.54236 -99.45882 487 ft 19 kts 182°
2026-05-08 01:21 27.54097 -99.45889 493 ft 20 kts 182°
2026-05-08 01:21 27.53966 -99.45897 499 ft 19 kts 183°
2026-05-08 01:22 27.53839 -99.45905 488 ft 18 kts 182°
2026-05-08 01:22 27.53711 -99.45911 496 ft 18 kts 183°
2026-05-08 01:22 27.53587 -99.45916 487 ft 18 kts 181°
2026-05-08 01:22 27.53464 -99.45921 488 ft 18 kts 182°
2026-05-08 01:23 27.53339 -99.45928 485 ft 15 kts 185°
2026-05-08 01:23 27.53305 -99.45948 484 ft 4 kts 223°
2026-05-08 01:23 27.53285 -99.45979 480 ft 5 kts 244°
2026-05-08 01:23 27.53286 -99.46022 489 ft 5 kts 289°
2026-05-08 01:24 27.53311 -99.46045 480 ft 4 kts 341°
2026-05-08 01:24 27.53400 -99.46050 484 ft 49 kts
2026-05-08 01:24 27.54118 -99.46012 492 ft 154 kts
2026-05-08 01:24 27.55356 -99.45940 959 ft 196 kts
2026-05-08 01:25 27.56810 -99.45889 1786 ft 215 kts
2026-05-08 01:25 27.58247 -99.45914 2841 ft 203 kts 358°
2026-05-08 01:25 27.59699 -99.45887 3511 ft 211 kts
2026-05-08 01:25 27.61177 -99.45823 4051 ft 214 kts
2026-05-08 01:26 27.62709 -99.45776 4680 ft 227 kts
2026-05-08 01:26 27.64219 -99.45229 5290 ft 232 kts 36°
2026-05-08 01:26 27.65276 -99.43879 5906 ft 234 kts 64°
2026-05-08 01:26 27.65897 -99.42216 6011 ft 262 kts 73°
2026-05-08 01:27 27.66529 -99.40171 6680 ft 275 kts 73°
2026-05-08 01:27 27.67182 -99.38114 7669 ft 281 kts 72°
2026-05-08 01:27 27.67877 -99.36016 8609 ft 289 kts 71°
2026-05-08 01:27 27.68617 -99.33875 9536 ft 296 kts 70°
2026-05-08 01:28 27.69389 -99.31690 10332 ft 310 kts 70°
2026-05-08 01:28 27.70254 -99.29276 10436 ft 348 kts 69°
2026-05-08 01:28 27.71215 -99.26633 10704 ft 375 kts 69°
2026-05-08 01:28 27.72219 -99.23896 11608 ft 382 kts 68°
2026-05-08 01:29 27.73250 -99.21105 12459 ft 390 kts 68°
2026-05-08 01:29 27.74308 -99.18244 13289 ft 398 kts 67°
2026-05-08 01:29 27.75382 -99.15343 14137 ft 405 kts 67°
2026-05-08 01:29 27.76479 -99.12373 14965 ft 412 kts 67°
2026-05-08 01:30 27.77588 -99.09368 15782 ft 419 kts 66°